Regional Weather Roundup
Issued by NWS

Home | Current Version | Previous Version | Graphics & Text | Print | Product List | Glossary On
Versions: 1 2 3 4 5 6 7 8 9 10 11 12 13 14 15 16 17 18 19 20 21 22 23 24 25 26 27 28 29 30 31 32 33 34 35 36 37 38 39 40 41 42 43 44 45 46 47 48 49 50
000
ASUS45 KBOI 230910
RWRID
WEATHER ROUNDUP FOR IDAHO
NATIONAL WEATHER SERVICE BOISE ID
300 AM MDT WED JUL 23 2014

NOTE: "FAIR" INDICATES FEW OR NO CLOUDS BELOW 12000 FEET
WITH NO SIGNIFICANT WEATHER AND/OR OBSTRUCTIONS TO VISIBILITY

IDZ012-014-231000-
SOUTHWEST IDAHO


CITY           SKY/WX    TMP DP  RH WIND       PRES   REMARKS
BOISE          CLOUDY    72  53  51 NW7       30.10R
CALDWELL       CLOUDY    64  52  63 E7        30.08F
MOUNTAIN HOME  MOCLDY    74  50  42 N24G40    30.02R
$$

IDZ016-017-231000-
SOUTHCENTRAL IDAHO


CITY           SKY/WX    TMP DP  RH WIND       PRES   REMARKS
BURLEY         CLEAR     60  50  69 CALM      30.05R
JEROME         CLEAR     65  50  58 S8        30.05R
TWIN FALLS     CLEAR     67  47  48 S14       30.06R
$$

IDZ019>023-231000-
SOUTHEAST IDAHO


CITY           SKY/WX    TMP DP  RH WIND       PRES   REMARKS
IDAHO FALLS    PTCLDY    54  49  83 NW6       30.09F
POCATELLO      CLEAR     57  43  59 CALM      30.07S
REXBURG        PTCLDY    59  50  72 E8        30.11F
$$

IDZ006-010-011-018-031-032-231000-
CENTRAL IDAHO MOUNTAINS


CITY           SKY/WX    TMP DP  RH WIND       PRES   REMARKS
MCCALL         LGT RAIN  61  49  64 S13       30.28R
HAILEY         CLEAR     63  43  48 NW9       30.14F
STANLEY          N/A     49  47  93 CALM      30.29S
SALMON         CLOUDY    66  50  55 NW14G30   30.20R
CHALLIS        MOCLDY    64  49  57 N7        30.16S
$$

IDZ002-004-006-007-026-231000-
NORTHERN IDAHO


CITY           SKY/WX    TMP DP  RH WIND       PRES   REMARKS
LEWISTON       LGT RAIN  66  61  84 E13       30.06F
LOWELL           N/A     70  59  68 CALM      30.14R
COEUR D`ALENE  CLOUDY    63  57  82 S9        30.13F
MULLAN PASS    LGT RAIN  49  48  97 NW7       30.30F FOG
$$



USA.gov is the U.S. government's official web portal to all federal, state and local government web resources and services.